Flag for Germany Weather past 2 weeks in Vreden, North Rhine-Westphalia, Germany

Now
47 °F

Clear.


Feels Like: 47 °F
Forecast: 44 / 61 °F
Wind: 1 mph from West

Location: Twenthe

Current Time: Sep 22, 2014 at 10:47:08 PM

Latest Report: Sep 22, 2014 at 10:00 PM


Visibility: 9 mi

Pressure: 30.16 "Hg

Humidity: 92%

Dew point: 45 °F

Location of VredenLocation

Historic Weather in Vreden — Graph

°F

Vreden temperature yesterday

Maximum temperature yesterday: 64 °F (at 1:00 PM)
Minimum temperature yesterday: 54 °F (at 9:00 PM)
Average temperature yesterday: 60 °F

Past Weeks' High & Low Weather Summary

 TemperatureHumidityPressure
High78 °F (Sep 18, 4:00 PM)100% (Sep 8, 12:00 AM)30.28 "Hg (Sep 8, 12:00 AM)
Low47 °F (Sep 12, 6:00 AM)46% (Sep 22, 4:00 PM)29.84 "Hg (Sep 18, 4:00 PM)
Average60 °F85%30.05 "Hg
* Reported Sep 7 9:00 PM — Sep 22 9:00 PM, Vreden, Weather by CustomWeather, © 2014

Note: Actual official high and low records may vary slightly from our data, if they occured in-between our weather recording intervals... More about our weather records

Advertising

Vreden weather history for previous 24 hours

 ConditionsComfort  
Time TempWeatherWind HumidityBarometerVisibility
9:00 PM
Sep 22
50 °FPassing clouds.2 mph77%30.15 "Hg13 mi
8:00 PM53 °FClear.2 mph71%30.14 "Hg14 mi
7:00 PM57 °FSunny.5 mph58%30.13 "Hg17 mi
6:00 PM59 °FScattered clouds.7 mph57%30.11 "Hg17 mi
5:00 PM62 °FPassing clouds.7 mph49%30.10 "Hg16 mi
4:00 PM61 °FPassing clouds.7 mph46%30.09 "Hg19 mi
3:00 PM59 °FScattered clouds.2 mph71%30.08 "Hg16 mi
2:00 PM59 °FPassing clouds.6 mph71%30.08 "Hg12 mi
1:00 PM55 °FScattered clouds.3 mph85%30.09 "Hg12 mi
12:00 PM50 °FLots of rain. Overcast.9 mph88%30.09 "Hg3 mi
11:00 AM57 °FPassing clouds.7 mph77%30.05 "Hg7 mi
10:00 AM54 °FRain showers. Overcast.5 mph79%30.06 "Hg6 mi
9:00 AM55 °FOvercast.7 mph69%30.06 "Hg9 mi
8:00 AM54 °FOvercast.5 mph76%30.06 "Hg7 mi
7:00 AM55 °FOvercast.6 mph73%30.07 "Hg7 mi
6:00 AM56 °FOvercast.5 mph70%30.07 "Hg8 mi
5:00 AM55 °FOvercast.5 mph77%30.07 "Hg7 mi
4:00 AM55 °FOvercast.6 mph78%30.08 "Hg7 mi
3:00 AM55 °FOvercast.5 mph78%30.09 "Hg6 mi
2:00 AM54 °FOvercast.5 mph79%30.09 "Hg6 mi
1:00 AM54 °FOvercast.5 mph85%30.10 "Hg6 mi
12:00 AM53 °FClear.3 mph91%30.09 "Hg7 mi
11:00 PM
Sep 21
54 °FPassing clouds.3 mph88%30.09 "Hg10 mi
10:00 PM55 °FRain showers. Overcast.3 mph87%30.09 "Hg7 mi
Weather by CustomWeather, © 2014

See weather overviewHow to use our weather pages